VTD146 UWLL-UWLL

Flight info

Callsign VTD146
Flight time 0h 13m
Altitude 1500
Route RA/A015
Aircraft DA42/L-SDEFGRY/C

Departure

Time 2026-05-05 13:17
Airport Ulyanovsk Baratayevka Airport (UWLL)

Arrival

Time 2026-05-05 13:30
Airport Ulyanovsk Baratayevka Airport (UWLL)
Time Latitude Longitude Altitude Speed Heading
2026-05-05 13:03 54.27156 48.23650 416 ft 0 kts 207°
2026-05-05 13:04 54.27155 48.23656 415 ft 4 kts
2026-05-05 13:05 54.27181 48.23623 416 ft 7 kts 302°
2026-05-05 13:05 54.27232 48.23634 414 ft 13 kts 31°
2026-05-05 13:05 54.27316 48.23725 410 ft 15 kts 32°
2026-05-05 13:05 54.27411 48.23827 406 ft 17 kts 33°
2026-05-05 13:06 54.27511 48.23935 401 ft 17 kts 32°
2026-05-05 13:06 54.27596 48.23965 395 ft 12 kts 304°
2026-05-05 13:06 54.27658 48.23796 394 ft 17 kts 301°
2026-05-05 13:06 54.27678 48.23597 396 ft 18 kts 261°
2026-05-05 13:07 54.27667 48.23510 399 ft 0 kts 258°
2026-05-05 13:08 54.27667 48.23508 399 ft 2 kts 257°
2026-05-05 13:09 54.27654 48.23405 402 ft 16 kts 258°
2026-05-05 13:09 54.27634 48.23228 408 ft 11 kts 240°
2026-05-05 13:09 54.27620 48.23206 409 ft 0 kts 213°
2026-05-05 13:09 54.27619 48.23204 409 ft 6 kts 211°
2026-05-05 13:10 54.27392 48.22959 414 ft 68 kts 212°
2026-05-05 13:10 54.27059 48.22603 422 ft 14 kts 215°
2026-05-05 13:10 54.27029 48.22586 419 ft 9 kts 33°
2026-05-05 13:10 54.27105 48.22656 415 ft 14 kts 48°
2026-05-05 13:11 54.27084 48.22759 421 ft 10 kts 166°
2026-05-05 13:11 54.27005 48.22789 424 ft 11 kts 166°
2026-05-05 13:11 54.26995 48.22793 419 ft 3 kts 168°
2026-05-05 13:11 54.26925 48.22831 420 ft 13 kts 130°
2026-05-05 13:12 54.26975 48.22955 425 ft 21 kts 31°
2026-05-05 13:12 54.27133 48.23120 417 ft 31 kts 32°
2026-05-05 13:12 54.27293 48.23293 417 ft 23 kts 32°
2026-05-05 13:12 54.27422 48.23430 412 ft 21 kts 31°
2026-05-05 13:13 54.27548 48.23566 402 ft 22 kts 32°
2026-05-05 13:13 54.27654 48.23661 396 ft 12 kts 349°
2026-05-05 13:13 54.27671 48.23547 398 ft 10 kts 259°
2026-05-05 13:13 54.27667 48.23510 399 ft 0 kts 258°
2026-05-05 13:14 54.27662 48.23475 400 ft 12 kts 260°
2026-05-05 13:14 54.27641 48.23270 407 ft 13 kts 263°
2026-05-05 13:14 54.27623 48.23210 409 ft 0 kts 213°
2026-05-05 13:16 54.27620 48.23205 409 ft 9 kts 213°
2026-05-05 13:16 54.27373 48.22940 414 ft 71 kts 212°
2026-05-05 13:16 54.26865 48.22368 546 ft 96 kts 210°
2026-05-05 13:16 54.26312 48.21693 912 ft 96 kts 211°
2026-05-05 13:17 54.25748 48.21073 1219 ft 99 kts 211°
2026-05-05 13:17 54.25158 48.20447 1521 ft 99 kts 214°
2026-05-05 13:17 54.24762 48.19426 1473 ft 112 kts 263°
2026-05-05 13:17 54.25046 48.18187 1603 ft 114 kts 299°
2026-05-05 13:18 54.25494 48.16974 1532 ft 123 kts 298°
2026-05-05 13:18 54.26128 48.15938 1469 ft 134 kts 330°
2026-05-05 13:18 54.27053 48.15966 1526 ft 140 kts 23°
2026-05-05 13:18 54.27883 48.16868 1517 ft 143 kts 32°
2026-05-05 13:19 54.28701 48.17813 1421 ft 141 kts 30°
2026-05-05 13:19 54.29508 48.18738 1429 ft 136 kts 28°
2026-05-05 13:19 54.30278 48.19639 1447 ft 131 kts 29°
2026-05-05 13:19 54.31009 48.20505 1505 ft 129 kts 26°
2026-05-05 13:20 54.31756 48.21327 1460 ft 124 kts 24°
2026-05-05 13:20 54.32366 48.22340 1344 ft 122 kts 59°
2026-05-05 13:20 54.32430 48.23700 1290 ft 114 kts 107°
2026-05-05 13:20 54.32012 48.24762 1275 ft 101 kts 130°
2026-05-05 13:21 54.31559 48.25578 1247 ft 92 kts 129°
2026-05-05 13:21 54.31037 48.26127 1152 ft 87 kts 167°
2026-05-05 13:21 54.30441 48.26056 993 ft 87 kts 193°
2026-05-05 13:21 54.29884 48.25602 832 ft 89 kts 202°
2026-05-05 13:22 54.29362 48.25049 714 ft 89 kts 202°
2026-05-05 13:22 54.28829 48.24488 584 ft 91 kts 202°
2026-05-05 13:22 54.28296 48.23912 549 ft 92 kts 202°
2026-05-05 13:22 54.27755 48.23319 646 ft 94 kts 204°
2026-05-05 13:23 54.27224 48.22704 836 ft 90 kts 205°
2026-05-05 13:23 54.26699 48.22120 969 ft 89 kts 202°
2026-05-05 13:23 54.26177 48.21585 1080 ft 87 kts 202°
2026-05-05 13:23 54.25637 48.21089 1177 ft 87 kts 202°
2026-05-05 13:24 54.25124 48.20548 1253 ft 88 kts 213°
2026-05-05 13:24 54.24797 48.19705 1316 ft 87 kts 258°
2026-05-05 13:24 54.24956 48.18727 1354 ft 90 kts 301°
2026-05-05 13:24 54.25308 48.17857 1469 ft 90 kts 292°
2026-05-05 13:25 54.25654 48.16926 1424 ft 98 kts 302°
2026-05-05 13:25 54.26280 48.16505 1476 ft 101 kts
2026-05-05 13:25 54.26962 48.16894 1512 ft 109 kts 25°
2026-05-05 13:25 54.27631 48.17591 1471 ft 117 kts 26°
2026-05-05 13:26 54.28311 48.18353 1484 ft 120 kts 21°
2026-05-05 13:26 54.29094 48.19134 1513 ft 137 kts 27°
2026-05-05 13:26 54.29924 48.19967 1504 ft 140 kts 30°
2026-05-05 13:26 54.30747 48.20877 1527 ft 142 kts 30°
2026-05-05 13:27 54.31595 48.21802 1516 ft 146 kts 31°
2026-05-05 13:27 54.32308 48.23028 1489 ft 148 kts 64°
2026-05-05 13:27 54.32350 48.24726 1442 ft 145 kts 115°
2026-05-05 13:27 54.31822 48.26157 1304 ft 138 kts 125°
2026-05-05 13:28 54.31221 48.27224 1216 ft 112 kts 166°
2026-05-05 13:28 54.30586 48.26833 1140 ft 101 kts 221°
2026-05-05 13:28 54.30117 48.26037 986 ft 93 kts 216°
2026-05-05 13:28 54.29614 48.25343 796 ft 94 kts 211°
2026-05-05 13:29 54.29055 48.24755 625 ft 92 kts 206°
2026-05-05 13:29 54.28519 48.24171 487 ft 90 kts 207°
2026-05-05 13:29 54.28015 48.23631 393 ft 82 kts 208°
2026-05-05 13:29 54.27604 48.23195 410 ft 52 kts 211°
2026-05-05 13:30 54.27359 48.22930 413 ft 34 kts 213°
2026-05-05 13:30 54.27200 48.22762 416 ft 19 kts 198°
2026-05-05 13:30 54.27071 48.22763 422 ft 20 kts 168°
2026-05-05 13:30 54.26996 48.22792 419 ft 0 kts 167°
2026-05-05 13:31 54.26992 48.22794 424 ft 5 kts 168°
2026-05-05 13:31 54.26916 48.22853 422 ft 12 kts 101°
2026-05-05 13:31 54.26978 48.22958 425 ft 12 kts 24°
2026-05-05 13:31 54.27054 48.23036 423 ft 13 kts 31°
2026-05-05 13:32 54.27149 48.23138 420 ft 18 kts 32°
2026-05-05 13:32 54.27255 48.23252 418 ft 18 kts 32°
2026-05-05 13:32 54.27359 48.23363 415 ft 19 kts 31°
2026-05-05 13:32 54.27467 48.23478 409 ft 19 kts 31°
2026-05-05 13:33 54.27578 48.23598 399 ft 19 kts 32°
2026-05-05 13:33 54.27673 48.23646 395 ft 12 kts 300°
2026-05-05 13:33 54.27667 48.23512 399 ft 0 kts 258°
2026-05-05 13:33 54.27667 48.23511 399 ft 1 kts 258°
2026-05-05 13:34 54.27652 48.23383 403 ft 17 kts 258°
2026-05-05 13:34 54.27626 48.23213 409 ft 11 kts 223°
2026-05-05 13:34 54.27619 48.23204 409 ft 0 kts 211°
2026-05-05 13:34 54.27538 48.23119 412 ft 43 kts 213°
2026-05-05 13:35 54.27121 48.22671 430 ft 91 kts 211°
2026-05-05 13:35 54.26593 48.22030 727 ft 97 kts 211°
2026-05-05 13:35 54.26051 48.21354 1077 ft 97 kts 212°
2026-05-05 13:35 54.25470 48.20739 1388 ft 99 kts 213°
2026-05-05 13:36 54.24887 48.20016 1476 ft 112 kts 236°
2026-05-05 13:36 54.24773 48.18695 1486 ft 120 kts 284°
2026-05-05 13:36 54.25188 48.17434 1550 ft 124 kts 298°
2026-05-05 13:36 54.25675 48.16170 1498 ft 131 kts 306°
2026-05-05 13:37 54.26526 48.15576 1524 ft 141 kts 359°
2026-05-05 13:37 54.27441 48.16185 1556 ft 146 kts 33°
2026-05-05 13:37 54.28279 48.17198 1496 ft 146 kts 33°
2026-05-05 13:37 54.29079 48.18194 1505 ft 139 kts 30°
2026-05-05 13:38 54.29869 48.19108 1496 ft 135 kts 28°
2026-05-05 13:38 54.30660 48.19979 1453 ft 135 kts 27°
2026-05-05 13:38 54.31467 48.20814 1430 ft 135 kts 24°
2026-05-05 13:38 54.32265 48.21617 1385 ft 133 kts 28°
2026-05-05 13:39 54.32757 48.22921 1397 ft 131 kts 77°
2026-05-05 13:39 54.32576 48.24387 1352 ft 126 kts 121°
2026-05-05 13:39 54.32062 48.25525 1303 ft 118 kts 122°
2026-05-05 13:39 54.31536 48.26523 1226 ft 108 kts 147°
2026-05-05 13:40 54.30837 48.26592 1125 ft 101 kts 195°
2026-05-05 13:40 54.30227 48.26033 948 ft 94 kts 202°
2026-05-05 13:40 54.29708 48.25421 779 ft 87 kts 200°
2026-05-05 13:40 54.29189 48.24869 635 ft 90 kts 197°
2026-05-05 13:41 54.28656 48.24307 514 ft 90 kts 196°
2026-05-05 13:41 54.28125 48.23750 398 ft 87 kts 200°
2026-05-05 13:41 54.27685 48.23284 405 ft 56 kts 218°
2026-05-05 13:41 54.27462 48.23043 413 ft 29 kts 211°
2026-05-05 13:42 54.27311 48.22875 413 ft 27 kts 211°
2026-05-05 13:42 54.27162 48.22748 413 ft 22 kts 182°
2026-05-05 13:42 54.27029 48.22779 423 ft 17 kts 166°
2026-05-05 13:42 54.26990 48.22794 424 ft 0 kts 168°
2026-05-05 13:43 54.26968 48.22803 422 ft 10 kts 167°
2026-05-05 13:43 54.26915 48.22857 426 ft 12 kts 100°
2026-05-05 13:43 54.26986 48.22962 424 ft 18 kts 31°
2026-05-05 13:43 54.27015 48.23076 419 ft 12 kts 123°
2026-05-05 13:44 54.26960 48.23226 418 ft 14 kts 122°
2026-05-05 13:44 54.26955 48.23337 417 ft 13 kts 33°
2026-05-05 13:44 54.27046 48.23434 419 ft 16 kts 31°
2026-05-05 13:44 54.27135 48.23529 417 ft 11 kts 32°
2026-05-05 13:45 54.27160 48.23588 412 ft 5 kts 120°
2026-05-05 13:45 54.27152 48.23613 416 ft 0 kts 73°
2026-05-05 13:46 54.27164 48.23629 416 ft 0 kts 32°